Location: Ostrava
(49.8330°N, 18.2830°E)
Time: 12:13:31
(UTC+02:00)

Lacrosse 5 - Visible Passes

Search period start: 25 October 2014 00:00
Search period end: 03 November 2014 23:00
Orbit: 706 x 722 km, 57.0° (Epoch: 19 October)

Date Brightness Start Highest point End Pass type
(mag) Time Alt. Az. Time Alt. Az. Time Alt. Az.
31 Oct 4.9 05:29:52 10° SSE 05:32:29 14° ESE 05:35:05 10° E visible
02 Nov 4.4 05:21:25 10° S 05:25:20 23° SE 05:29:15 10° ENE visible
03 Nov 4.8 04:28:45 10° SE 04:30:57 13° ESE 04:33:10 10° E visible
